#timestamp,LO_Frequency,Hit,StdDev 
1560722415.0,286046998.8,N
1560722415.9,286046998.8,N
1560722435.8,286047001.1,N
1560722455.6,286047000.9,N
1560722475.4,286047000.4,N
1560722495.3,286046999.9,N
1560722515.1,286047000.5,N
1560722535.8,286047000.7,N
1560722555.7,286047000.0,N
1560722575.5,286047000.7,N
1560722595.4,286047000.1,N
1560722615.2,286046996.5,N
1560722635.0,286046999.0,N
1560722635.9,286046999.0,N
1560722655.8,286046999.6,N
1560722675.6,286046999.5,N
1560722695.5,286047000.1,N
1560722715.3,286047001.2,N
1560722735.1,286047000.6,N
1560722755.9,286047001.1,N
1560722775.7,286047000.5,N
1560722795.5,286047002.2,N
1560722815.4,286047000.0,N
1560722835.2,286047002.3,N
1560722855.1,286046999.7,N
1560722856.0,286046999.7,N
1560722875.8,286047000.3,N
1560722895.6,286047002.4,N
1560722915.5,286047000.3,N
1560722935.3,286047003.7,Y
1560722955.1,286047004.4,P
1560722975.9,286047001.3,N
1560722995.7,286047003.9,N
1560723015.6,286047004.2,N
1560723035.4,286047003.3,N
1560723055.2,286047003.9,N
1560723075.1,286047003.3,N
1560723076.0,286047003.3,N
1560723095.8,286047003.3,N
1560723115.7,286047004.2,Y
1560723135.5,286046998.6,P
1560723155.3,286046998.7,N
1560723175.2,286046998.9,N
1560723195.0,286046997.1,N
1560723195.9,286046997.1,N
1560723215.7,286046996.7,N
1560723235.6,286046997.9,N
1560723255.2,286046997.6,N
1560723275.0,286046997.4,N
1560723275.9,286046997.4,N
1560723295.8,286046996.0,N
1560723315.6,286046996.0,N
1560723335.4,286046993.3,Y
1560723355.3,286046997.5,P
1560723375.1,286046994.9,P
1560723395.9,286046995.6,P
1560723415.7,286046997.4,N
1560723435.5,286046999.1,N
1560723455.4,286046997.7,N
1560723475.2,286046995.3,Y
1560723495.0,286046998.4,P
1560723496.0,286046998.4,N
1560723515.8,286046998.7,N
1560723535.6,286046998.3,N
1560723555.5,286046996.6,Y
1560723575.3,286046999.8,P
1560723595.1,286047002.3,N
1560723615.9,286047002.7,N
1560723635.7,286047002.8,N
1560723655.6,286047002.6,N
1560723675.4,286047002.4,N
1560723695.2,286047000.1,N
1560723715.1,286047000.8,N
1560723716.0,286047000.8,N
1560723735.8,286047000.3,N
1560723755.7,286046998.5,N
1560723775.5,286046998.2,N
1560723795.3,286046999.3,N
1560723815.2,286046998.2,N
1560723835.9,286046998.7,N
1560723855.7,286046998.9,N
1560723875.6,286046999.1,N
1560723895.4,286046999.1,N
1560723915.3,286046999.6,N
1560723935.1,286046996.8,N
1560723936.0,286046996.8,N
1560723955.8,286046999.1,N
1560723975.7,286046999.1,N
1560723995.5,286047000.9,N
1560724015.3,286047000.1,N
1560724035.2,286047000.1,N
1560724055.0,286047002.7,N
1560724055.9,286047002.7,N
1560724075.8,286047002.2,N
1560724095.6,286047001.4,N
1560724115.4,286047004.2,N
1560724135.3,286047001.5,N
1560724155.1,286047001.6,N
1560724175.9,286047002.1,N
1560724195.7,286047001.5,N
1560724215.5,286046999.7,N
1560724235.4,286046999.8,N
1560724255.2,286047001.1,N
1560724275.0,286046999.8,N
1560724275.9,286046999.8,N
1560724295.8,286046999.7,N
1560724315.6,286047002.1,N
1560724335.5,286047001.6,N
1560724355.3,286047000.4,N
1560724375.1,286047002.0,N
1560724395.9,286047002.8,N
1560724415.7,286046999.7,N
1560724435.5,286047002.6,N
1560724455.4,286047002.1,N
1560724475.2,286047004.0,N
1560724495.1,286047003.3,N
1560724496.0,286047003.3,N
1560724515.8,286047002.0,N
1560724535.6,286047001.3,N
1560724555.5,286047004.1,Y
1560724575.9,286047004.1,P
1560724595.7,286047000.3,N
1560724615.5,286046999.9,N
1560724635.4,286047000.4,N
1560724655.2,286046999.3,N
1560724675.1,286046996.9,N
1560724676.0,286046996.9,N
1560724695.8,286046999.4,N
1560724715.6,286046998.3,N
1560724735.5,286046997.1,N
1560724755.3,286046999.3,N
1560724775.1,286046999.0,N
1560724795.9,286047001.1,N
1560724815.7,286046998.6,N
1560724835.6,286046997.8,N
1560724855.4,286046999.5,N
1560724875.2,286046997.0,N
1560724895.1,286047001.1,N
1560724896.0,286047001.1,N
1560724915.8,286046998.8,N
1560724935.6,286046998.9,N
1560724955.5,286047000.1,N
1560724975.3,286046998.9,N
1560724995.2,286046999.4,N
1560725015.9,286046996.9,N
1560725035.7,286046998.5,N
1560725055.6,286047000.7,N
1560725075.4,286047000.0,N
1560725095.2,286046998.8,N
1560725115.1,286046998.7,N
1560725116.0,286046998.7,N
1560725135.8,286047000.1,N
1560725155.7,286047001.5,N
1560725175.5,286047001.6,N
1560725195.3,286047000.4,N
1560725215.2,286047002.3,N
1560725235.0,286047000.4,N
1560725235.9,286047000.4,N
1560725255.8,286047001.1,N
1560725275.6,286047001.1,N
1560725295.4,286047000.2,N
1560725315.3,286046999.8,N
1560725335.1,286047002.0,N
1560725355.8,286047004.1,N
1560725375.7,286047003.0,N
1560725395.5,286047005.5,Y
1560725415.4,286047004.3,P
1560725435.2,286047004.4,N
1560725455.0,286047001.7,N
1560725455.9,286047001.7,N
1560725475.8,286047002.5,N
1560725495.6,286047001.6,N
1560725515.4,286047003.9,N
1560725535.3,286047003.3,N
1560725555.1,286047005.5,Y
1560725575.9,286047001.0,P
1560725595.7,286046998.6,N
1560725615.5,286047001.0,N
1560725635.4,286046999.7,N
1560725655.2,286047000.1,N
1560725675.0,286047000.7,N
1560725676.0,286047000.7,N
1560725695.8,286046999.9,N
1560725715.6,286047000.7,N
1560725735.5,286046998.2,N
1560725755.3,286046996.5,Y
1560725775.1,286046998.5,P
1560725795.9,286046998.5,N
1560725815.7,286046997.3,P
1560725835.6,286046994.9,Y
1560725855.4,286046995.1,P
1560725875.2,286046994.9,N
1560725895.1,286046996.5,N
1560725896.0,286046996.5,N
1560725915.8,286046999.0,N
1560725935.6,286046999.3,N
1560725955.5,286047000.1,N
1560725975.3,286047000.2,N
1560725995.2,286047000.2,N
